Regional Weather Roundup
Issued by NWS

Home | Current Version | Previous Version | Graphics & Text | Print | Product List | Glossary On
Versions: 1 2 3 4 5 6 7 8 9 10 11 12 13 14 15 16 17 18 19 20 21 22 23 24 25 26 27 28 29 30 31 32 33 34 35 36 37 38 39 40 41 42 43 44 45 46 47 48 49 50
000
ASUS43 KMKX 212000
RWRWI

WISCONSIN REGIONAL WEATHER ROUNDUP
NATIONAL WEATHER SERVICE MILWAUKEE/SULLIVAN WI
200 PM CST SUN DEC 21 2014

NOTE: "FAIR" INDICATES FEW OR NO CLOUDS BELOW 12,000 FEET WITH NO
SIGNIFICANT WEATHER AND/OR OBSTRUCTIONS TO VISIBILITY.

WIZ001-002-006>008-014>016-023>028-212100-
NORTHWEST WISCONSIN

CITY           SKY/WX    TMP DP  RH WIND       PRES   REMARKS
SUPERIOR ARPT  MIX PCPN  32  32  99 CALM      29.81S
ASHLAND        LGT SNOW  33  31  92 S6        29.84F FOG     WCI  28
HAYWARD        SNOW      33  30  88 S9        29.80F VSB 1/2 WCI  25
SIREN          LGT SNOW  33  32  95 SE8       29.78F WCI  26
CUMBERLAND     SNOW      32  32 100 SE9       29.80F VSB 1/2 WCI  24
RICE LAKE      LGT SNOW  33  32  98 SE10      29.83F WCI  24
CHETEK         MIX PCPN  33  32  98 SE8       29.83F WCI  25
LADYSMITH      LGT SNOW  33  32  95 SE9       29.86F VSB 1   WCI  26
EAU CLAIRE     CLOUDY    34  33  96 S10       29.83F FOG     WCI  26
MENOMONIE      LGT RAIN  35  34  98 SE10      29.83F WCI  27
NEW RICHMOND   LGT RAIN  33  33 100 SE9       29.79F WCI  26
OSCEOLA        LGT SNOW  33  33 100 SE7       29.81F WCI  27
$$

WIZ003>005-009-010-017-018-212100-
NORTH CENTRAL WISCONSIN

CITY           SKY/WX    TMP DP  RH WIND       PRES   REMARKS
MANITOWISH WTR LGT SNOW  31  31 100 S14       29.86F VSB 1   WCI  20
ARBOR VITAE    LGT SNOW  32  30  92 S9G16     29.87F WCI  24
WOODRUFF       LGT SNOW  32  30  92 S9G16     29.87F WCI  24
RHINELANDER    LGT SNOW  30  29  96 S9        29.89F FOG     WCI  22
EAGLE RIVER    LGT SNOW  31  30  97 S10       29.89F WCI  22
LAND O LAKES   LGT SNOW  32  30  93 S8        29.89F WCI  25
PHILLIPS       LGT SNOW  32  30  94 SE10G16   29.85F WCI  23
TOMAHAWK       LGT SNOW  31  29  94 CALM      29.90F
MEDFORD        MIX PCPN  32  31  98 SE12G20   29.88F VSB 1/2 WCI  23
MERRILL        CLOUDY    32  32 100 S6        29.91F FOG     WCI  26
$$

WIZ029-030-035-036-043>047-212100-
CENTRAL WISCONSIN

CITY           SKY/WX    TMP DP  RH WIND       PRES   REMARKS
WAUSAU         LGT SNOW  33  31  92 S13       29.90F FOG     WCI  24
MOSINEE        NOT AVBL
MARSHFIELD     LGT SNOW  33  32  96 S15       29.90F VSB 1   WCI  23
STEVENS POINT  CLOUDY    33  31  94 SE9       29.95F FOG     WCI  25
WAUPACA        CLOUDY    37  32  84 S8        29.99F HAZE    WCI  30
WAUTOMA        NOT AVBL
WISC RAPIDS    CLOUDY    35  31  85 S9        29.94F FOG     WCI  28
CAMP DOUGLAS   NOT AVBL
$$

WIZ011>013-019>022-031-037>040-048>050-212100-
NORTHEAST WISCONSIN

CITY           SKY/WX    TMP DP  RH WIND       PRES   REMARKS
ANTIGO         CLOUDY    30  30 100 S12       29.93F FOG     WCI  21
SHAWANO        CLOUDY    36  32  86 S7        30.00F FOG     WCI  30
OCONTO         CLOUDY    34  32  92 S6        30.02F WCI  29
STURGEON BAY   CLOUDY    36  30  80 S13G21    30.04F WCI  27
GREEN BAY      CLOUDY    35  32  88 S8        30.02F FOG     WCI  29
MANITOWOC      NOT AVBL
APPLETON       CLOUDY    37  34  87 S13       30.01F FOG     WCI  29
CLINTONVILLE   CLOUDY    34  32  93 S10       30.00F FOG     WCI  26
OSHKOSH        CLOUDY    35  31  85 S12       30.01F FOG     WCI  27
$$

WIZ032>034-041-042-053>061-212100-
SOUTHWEST WISCONSIN

CITY           SKY/WX    TMP DP  RH WIND       PRES   REMARKS
LA CROSSE      CLOUDY    39  35  86 S17       29.88F FOG     WCI  30
SPARTA         CLOUDY    37  35  94 S9G21     29.91F FOG     WCI  30
VIROQUA        CLOUDY    35  35 100 S15       29.89F WCI  26
BOSCOBEL       CLOUDY    39  33  79 S10       29.94F WCI  32
PRAIRIE DU CHI CLOUDY    39  33  78 SE8G17    29.92F WCI  34
PLATTEVILLE    CLOUDY    37  34  89 S12       29.97F WCI  29
$$

WIZ056-057-062-063-064-067-068-212100-
SOUTH CENTRAL WISCONSIN

CITY           SKY/WX    TMP DP  RH WIND       PRES   REMARKS
REEDSBURG      CLOUDY    36  32  88 S9        29.95F WCI  29
BARABOO/DELLS  CLOUDY    35  32  89 S14       29.96F FOG     WCI  26
LONE ROCK      NOT AVBL
MINERAL POINT  CLOUDY    37  34  87 S10G16    29.95F WCI  30
MADISON        CLOUDY    36  32  85 S14       29.99F WCI  27
MIDDLETON      CLOUDY    37  34  90 S8        30.00F WCI  30
WATERTOWN      CLOUDY    34  32  92 S12       30.02F FOG     WCI  26
MONROE         CLOUDY    36  34  93 S14G20    29.98F WCI  27
JANESVILLE     CLOUDY    37  34  87 S10       30.02F WCI  30
$$

WIZ051-052-058>065-066-070>072-212100-
SOUTHEAST WISCONSIN

CITY           SKY/WX    TMP DP  RH WIND       PRES   REMARKS
MILWAUKEE      CLOUDY    36  29  75 S10       30.07F WCI  28
WAUKESHA       CLOUDY    34  30  86 S12       30.06F FOG     WCI  25
MILWAUKEE/TIMM CLOUDY    36  28  75 S9        30.06F WCI  29
RACINE         CLOUDY    36  30  79 S10       30.08F WCI  28
BURLINGTON     CLOUDY    34  29  84 S8G16     30.05F WCI  27
KENOSHA        CLOUDY    36  30  79 S14       30.07F WCI  27
FOND DU LAC    CLOUDY    36  31  82 S13       30.01F WCI  27
SHEBOYGAN      CLOUDY    36  31  82 S10       30.04F WCI  28
WEST BEND      CLOUDY    34  30  86 S7        30.04F WCI  28
JUNEAU         CLOUDY    34  31  91 S12       30.03F FOG     WCI  25
$$

LSZ147-162-212100-
LAKE SUPERIOR

STATION/POSITION TIME  TEMP    WIND        PRES    WAVE
                       AIR SEA DIR/SP/G            HT/PER
                 (UTC) (F)     (DEG/KT/KT) (MB)    (FT/S)
DEVILS ISLAND    1900   34     140/  6/  8 1012.0F
PORT WING        1900   34      90/  2/  3 1010.5F
SAXON HARBOR     1900   36     190/  2/  6 1011.2F
$$

LMZ867-665-643>646-212100-
LAKE MICHIGAN

STATION/POSITION TIME  TEMP    WIND        PRES    WAVE
                       AIR SEA DIR/SP/G            HT/PER
                 (UTC) (F)     (DEG/KT/KT) (MB)    (FT/S)
CHAMBERS ISLAND  1900   36     150/  8/ 13 1017.3F
NORTHPORT PIER   1900   37     160/  9/ 16 1017.6F
SISTER BAY       1913          180/ 18/ 24   N/A
ALGOMA LAKESHORE 1914          230/ 16/ 18   N/A
KEWAUNEE LAKESHO 1900   36     190/ 14/ 17 1017.2F
SHEBOYGAN LAKESH 1900   37 34  180/ 18/ 20 1019.0F
PORT WASHINGTON  1900   37     180/ 10/ 15 1019.0F
MILWAUKEE LAKESH 1900   36     190/ 11/ 14   N/A
KENOSHA   LAKESH 1900   35     170/ 14/ 17 1019.3F
$$

TC  - TEMPERATURE IN CELSIUS
VSB - VISIBILITY IN STATUTE MILES
WCI - WIND CHILL INDEX
HX  - HEAT INDEX



USA.gov is the U.S. government's official web portal to all federal, state and local government web resources and services.